Regional Weather Roundup
Issued by NWS

Home | Current Version | Previous Version | Text Only | Print | Product List | Glossary Off
Versions: 1 2 3 4 5 6 7 8 9 10 11 12 13 14 15 16 17 18 19 20 21 22 23 24 25 26 27 28 29 30 31 32 33 34 35 36 37 38 39 40 41 42 43 44 45 46 47 48 49 50

000
ASUS45 KBOU 301807
RWRCO

WEATHER ROUNDUP FOR COLORADO
NATIONAL WEATHER SERVICE DENVER/BOULDER CO
1200 PM MDT SAT AUG 30 2014

NOTE: "FAIR" INDICATES FEW OR NO CLOUDS BELOW 12000 FEET WITH NO
SIGNIFICANT WEATHER AND/OR OBSTRUCTIONS TO VISIBILITY.

COZ001>005-013-030-031-301900-
...NORTHWEST COLORADO...

CITY           SKY/WX    TMP DP  RH WIND       PRES   REMARKS
CRAIG          MOSUNNY   75  48  38 VRB3      30.10F
HAYDEN         MOSUNNY   72  45  37 E5        30.13F
MEEKER         PTSUNNY   75  43  31 SW13G22   30.13F
MOUNT WERNER   NOT AVBL
STEAMBOAT SPGS MOSUNNY   71  46  40 CALM      30.15F
WALDEN         SUNNY     70  37  30 SW16G22   30.23F
$$

COZ006>008-011-301900-
...WEST CENTRAL VALLEYS...

CITY           SKY/WX    TMP DP  RH WIND       PRES   REMARKS
GRAND JUNCTION MOSUNNY   74  47  38 SE13      30.06F
MONTROSE       SUNNY     75  48  38 NW9       30.16F
EAGLE          MOSUNNY   70  45  40 CALM      30.20F
RIFLE          MOSUNNY   71  49  45 CALM      30.11F
DELTA          SUNNY     81  45  27 CALM      30.11F
NUCLA          SUNNY     77  41  27 W8        30.20F
$$

COZ017>023-064>068-301900-
...SOUTHWEST COLORADO...

CITY           SKY/WX    TMP DP  RH WIND       PRES   REMARKS
DURANGO        SUNNY     77  39  25 VRB3      30.24F
CORTEZ         SUNNY     82  38  20 SW14      30.19S
PAGOSA SPRINGS SUNNY     71  34  25 W5        30.31F
TELLURIDE      SUNNY     68  32  26 SW3       30.38S
WOLF CREEK PAS SUNNY     52  36  54 W12G17    30.58S
$$

COZ009-010-012-014-032>034-037-058>063-301900-
...CENTRAL COLORADO...

CITY           SKY/WX    TMP DP  RH WIND       PRES   REMARKS
ASPEN            N/A     73  37  27 NE7       30.24F
BUENA VISTA    MOSUNNY   70  36  28 E5        30.26F
COPPER MTN     MOSUNNY   55  30  38 W18G33    30.53F
BERTHOUD PASS  FAIR      46  45  93 NW20G30   30.56R
COTTONWOOD PAS MOSUNNY   68  30  24 CALM      30.40F
GUNNISON       SUNNY     63  39  42 CALM      30.32F
KREMMLING      SUNNY     66  41  39 CALM      30.24F
LEADVILLE      MOSUNNY   62  31  31 W14G22    30.37F
SALIDA         MOSUNNY   74  40  29 CALM      30.29F
SUNLIGHT       PTSUNNY   63  43  48 CALM      30.48F
WILKERSON PASS NOT AVBL
$$

COZ069>075-301900-
...SAN LUIS VALLEY/SANGRE DE CRISTO MOUNTAINS...

CITY           SKY/WX    TMP DP  RH WIND       PRES   REMARKS
ALAMOSA        SUNNY     70  41  34 CALM      30.27F
LA VETA PASS   NOT AVBL
SAGUACHE       NOT AVBL
$$

COZ035-036-038>040-301900-
...NORTHERN COLORADO FRONT RANGE...

CITY           SKY/WX    TMP DP  RH WIND       PRES   REMARKS
DENVER INTL AP MOSUNNY   80  42  25 S9        30.03F
DMNS CITY PARK   N/A     83  44  25 S5        30.01F
AURORA         MOSUNNY   80  40  24 SW8       30.05F
FRONT RANGE AP NOT AVBL
ERIE MUNI ARPT SUNNY     83  39  21 SE5       30.01F
BOULDER MUN AP SUNNY     77  52  41 NE5       30.01F
CENTENNIAL     MOSUNNY   79  38  22 S7        30.07F
BROOMFIELD     MOSUNNY   81  45  28 SE6       30.05F
FORT COLLINS   SUNNY     75  55  50 SE6       30.01F
LONGMONT       SUNNY     80  52  38 CALM      30.02F
$$

COZ041-046-047-076>085-087-088-301900-
...PIKES PEAK/PALMER DIVIDE AND SOUTHERN FOOTHILLS...

CITY           SKY/WX    TMP DP  RH WIND       PRES   REMARKS
COLO. SPRINGS  MOSUNNY   76  44  32 SE8       30.13F
A. F. ACADEMY  SUNNY     75  41  29 SE6       30.13F
ELLICOTT       SUNNY     75  47  36 S10       30.11F
FALCON         NOT AVBL
FORT CARSON    SUNNY     76  50  39 E6        30.10F
LIMON          SUNNY     80  45  28 S10G20    30.06F
MONUMENT HILL  SUNNY     73  37  27 SW10G16   30.16F
TRINIDAD       SUNNY     83  39  21 VRB5      30.11F
$$

COZ042>045-048>051-090-091-301900-
...NORTHEAST COLORADO...

CITY           SKY/WX    TMP DP  RH WIND       PRES   REMARKS
GREELEY ARPT   SUNNY     75  55  50 SE5       30.01F
AKRON          SUNNY     80  50  34 W10       30.01F
BURLINGTON     SUNNY     84  47  27 SW20G26   30.03F
WRAY             N/A     84  52  33 S10       29.97F
STERLING       SUNNY     79  61  53 S7        29.97F
HOLYOKE        SUNNY     81  59  47 S9        29.97F
FORT MORGAN    SUNNY     76  52  42 SW6       30.01F
$$

COZ086-089-092>099-301900-
...SOUTHEAST COLORADO...

CITY           SKY/WX    TMP DP  RH WIND       PRES   REMARKS
PUEBLO         SUNNY     82  42  24 SW5       30.03F
LA JUNTA       SUNNY     82  50  32 S6        30.02F
LAMAR          SUNNY     88  47  24 SW16G24   29.97F
SPRINGFIELD      N/A     83  51  33 S15G24    30.05F
$$


USA.gov is the U.S. government's official web portal to all federal, state and local government web resources and services.